Regional Weather Roundup
Issued by NWS

Home | Current Version | Previous Version | Text Only | Print | Product List | Glossary On
Versions: 1 2 3 4 5 6 7 8 9 10 11 12 13 14 15 16 17 18 19 20 21 22 23 24 25 26 27 28 29 30 31 32 33 34 35 36 37 38 39 40 41 42 43 44 45 46 47 48 49 50
851
ASUS44 KJAN 232310
RWRMS

MISSISSIPPI HOURLY WEATHER ROUNDUP
NATIONAL WEATHER SERVICE JACKSON MS
600 PM CDT THU OCT 23 2014

NOTE: "FAIR: INDICATES FEW OR NO CLOUDS BELOW 12,000 FEET WITH NO
SIGNIFICANT WEATHER AND/OR OBSTRUCTIONS TO VISIBILITY.

MSZ001>002-007>008-010>013-018>021-025>028-034>036-240000-
NORTHWEST MISSISSIPPI

CITY           SKY/WX    TMP DP  RH WIND       PRES   REMARKS
CLARKSDALE     FAIR      59  50  72 N3        30.14S
CLEVELAND      FAIR      60  50  70 N3        30.12R
GREENWOOD      CLOUDY    59  49  69 N9        30.08F
GREENVILLE     CLOUDY    60  48  64 N3        30.13R
GRENADA          N/A    N/A N/A N/A MISG        N/A
OLIVE BRANCH   MOCLDY    55  46  71 NW5       30.13F
OXFORD         FAIR      57  48  72 CALM      30.14S
TUNICA         CLOUDY    59  46  63 NW7       30.13S
$$

MSZ003>006-009-014>017-022>024-029>033-037>039-240000-
NORTHEAST MISSISSIPPI

CITY           SKY/WX    TMP DP  RH WIND       PRES   REMARKS
COLUMBUS AFB   MOCLDY    60  49  67 NW5       30.10R
CORINTH        FAIR      59  50  72 CALM      30.10F
GOLDN TRIANGLE PTCLDY    63  45  51 N9        30.10R
STARKVILLE     FAIR      59  48  67 CALM      30.10S
TUPELO         CLOUDY    61  50  67 CALM      30.10S
$$

MSZ040-058-240000-
CENTRAL MISSISSIPPI

CITY           SKY/WX    TMP DP  RH WIND       PRES   REMARKS
JACKSON INTL   CLOUDY    62  49  62 N7        30.10R
JACKSON HAWKNS CLOUDY    63  49  60 VRB5      30.10R
MERIDIAN KEY   CLOUDY    61  47  59 NW7       30.08R
MERIDIAN NAS   CLOUDY    63  47  55 NW5       30.09R
RAYMOND        FAIR      59  55  88 CALM      30.09F
VICKSBURG      MOCLDY    63  48  58 N7        30.11R
$$

MSZ059>079-240000-
SOUTH MISSISSIPPI

CITY           SKY/WX    TMP DP  RH WIND       PRES   REMARKS
BROOKHAVEN     FAIR      63  52  67 N5        30.09S
COLUMBIA         N/A    N/A N/A N/A MISG        N/A
HATTIESBURG    CLOUDY    67  46  47 N3        30.07R
MCCOMB         CLOUDY    68  47  46 NE3       30.07R
NATCHEZ        MOCLDY    63  48  59 N5        30.11R
PINE BELT      CLOUDY    64  46  52 N6        30.09S
$$

MSZ080>082-240000-
COASTAL MISSISSIPPI

CITY           SKY/WX    TMP DP  RH WIND       PRES   REMARKS
BAY ST LOUIS   PTCLDY    68  50  52 S5        30.05R
BILOXI         MOCLDY    69  50  50 S1        30.04R
PASCAGOULA     PTCLDY    63  50  62 CALM      30.03S
GULFPORT       CLOUDY    70  52  52 CALM      30.04R
$$



USA.gov is the U.S. government's official web portal to all federal, state and local government web resources and services.